This is the latest recevied weather packets stored in our database for station/object SP4LIN-15. If no packets are shown the sender has not sent any weather packets the latest 10 day(s).
| Time | Temp. | Humidity | Pressure | Rain* | Wind** | Luminosity | Snow |
|---|---|---|---|---|---|---|---|
| 1777539152 | 13.33° C | 41% | 1023 hPa | 0 mm | - | - | - |
| 1777538252 | 11.67° C | 44% | 1023.1 hPa | 0 mm | - | - | - |
| 1777537352 | 10.56° C | 48% | 1023.2 hPa | 0 mm | - | - | - |
| 1777536452 | 9.44° C | 50% | 1023.4 hPa | 0 mm | - | - | - |
| 1777535552 | 7.78° C | 54% | 1023.4 hPa | 0 mm | - | - | - |
| 1777534652 | 6.67° C | 56% | 1023.7 hPa | 0 mm | - | - | - |
| 1777533752 | 6.11° C | 58% | 1023.7 hPa | 0 mm | - | - | - |
| 1777532852 | 5.56° C | 61% | 1023.6 hPa | 0 mm | - | - | - |
| 1777531952 | 3.89° C | 62% | 1023.5 hPa | 0 mm | - | - | - |
| 1777531052 | 3.89° C | 64% | 1023.5 hPa | 0 mm | - | - | - |
| 1777530152 | 3.89° C | 66% | 1023.7 hPa | 0 mm | - | - | - |
| 1777529252 | 2.78° C | 68% | 1023.5 hPa | 0 mm | - | - | - |
| 1777528352 | 2.22° C | 70% | 1023.4 hPa | 0 mm | - | - | - |
| 1777527452 | 1.67° C | 72% | 1023.3 hPa | 0 mm | - | - | - |
| 1777526552 | 1.11° C | 74% | 1023.4 hPa | 0 mm | - | - | - |
| 1777525652 | 0.56° C | 76% | 1023.2 hPa | 0 mm | - | - | - |
| 1777524752 | 0.56° C | 78% | 1023.6 hPa | 0 mm | - | - | - |
| 1777523852 | 0° C | 80% | 1023.4 hPa | 0 mm | - | - | - |
| 1777522952 | -0.56° C | 81% | 1023.2 hPa | 0 mm | - | - | - |
| 1777522052 | -1.11° C | 82% | 1023 hPa | 0 mm | - | - | - |
| 1777521152 | -1.67° C | 83% | 1023 hPa | 0 mm | - | - | - |
| 1777520252 | -2.22° C | 83% | 1023.1 hPa | 0 mm | - | - | - |
| 1777519352 | -3.33° C | 82% | 1023.1 hPa | 0 mm | - | - | - |
| 1777518452 | -3.33° C | 82% | 1023.3 hPa | 0 mm | - | - | - |
| 1777517552 | -3.33° C | 82% | 1023.2 hPa | 0 mm | - | - | - |
* Rain latest hour (hover to see other rain measurements)
** Current wind speed in m/s (hover to see current wind gust speed)